Theta_e
305 304 304 304 304 304 304 305 305 305 304 305 306 306 307 307 306 306 306 306 307 309 310 311 312 312 311 312 312 313 308 311 311 312 312 309 310 312 311 311 312 312 311 310 309
305 304 304 305 304 304 304 304 305 305 305 304 304 305 305 308 307 307 306 306 307 309 311 311 312 312 311 310 311 310 308 310 308 307 308 309 310 311 310 310 311 311 310 310 309
305 305 304 305 305 304 304 305 304 304 305 305 305 304 305 306 309 307 307 306 307 308 310 310 311 311 310 309 309 307 307 307 309 309 309 309 310 310 310 308 310 311 311 310 307
305 305 304 304 305 304 304 305 304 305 305 306 305 305 305 308 312 307 307 306 306 306 306 309 311 311 309 308 309 307 309 309 309 309 309 308 308 308 309 310 310 311 310 307 305
305 305 305 304 304 304 304 304 305 305 305 306 305 305 308 307 307 307 307 307 306 308 310 312 312 311 308 309 309 307 308 309 309 309 309 309 308 307 308 309 309 310 309 307 307
304 305 305 305 304 304 305 304 304 305 305 306 306 306 310 308 307 308 307 308 307 307 309 310 311 311 310 309 308 308 308 308 308 309 309 308 308 307 309 310 308 309 308 307 307
304 304 304 305 305 304 304 304 304 304 305 306 307 307 310 308 308 307 308 308 308 309 310 310 310 309 308 308 309 308 308 307 308 308 308 308 306 306 309 309 309 309 307 308 308
305 305 304 305 305 305 304 304 305 305 305 305 305 308 308 308 308 307 308 308 307 308 309 310 310 309 308 309 309 309 307 308 307 307 308 306 304 307 311 309 309 308 308 308 308
306 306 305 304 305 305 305 304 305 305 305 305 306 308 307 307 307 308 306 306 306 307 307 308 310 310 309 307 307 306 305 307 308 307 306 306 304 305 308 308 308 308 308 308 308
306 307 307 305 304 305 305 304 305 305 305 305 307 307 306 307 307 308 307 307 306 307 308 310 311 305 304 305 308 307 306 306 307 306 306 305 304 303 306 307 307 307 308 308 308
307 307 308 307 305 305 304 305 306 305 305 307 307 307 306 307 307 307 307 307 309 307 306 309 305 305 307 307 307 306 307 306 305 306 305 304 303 303 305 306 307 308 307 307 307
307 308 308 309 306 305 304 304 309 308 305 305 305 306 306 306 307 306 307 309 309 305 308 305 306 306 307 307 307 307 306 305 302 306 306 305 306 304 304 305 308 308 308 307 306
307 308 308 309 308 305 305 304 305 306 307 304 306 305 305 307 306 306 307 308 307 307 306 307 307 306 307 306 307 306 306 304 303 304 304 304 300 302 306 306 308 308 308 307 306
307 307 308 309 308 305 305 305 305 307 305 307 303 305 304 306 304 305 307 307 306 306 304 304 305 306 306 307 305 306 305 305 306 305 302 303 301 302 305 305 305 307 307 307 306
307 307 308 308 309 306 307 305 305 307 311 306 304 305 305 307 305 304 307 308 305 305 305 307 305 305 306 306 305 306 305 305 305 306 305 305 301 301 304 307 304 304 307 307 306
307 306 307 308 308 306 305 304 304 308 309 303 303 305 306 306 306 305 305 306 306 304 303 304 304 304 305 304 305 305 305 306 304 303 299 307 298 300 304 305 305 305 307 306 306
307 306 307 308 309 305 303 304 306 307 304 304 303 305 305 306 306 305 305 304 304 303 301 303 304 303 304 306 305 305 303 300 303 302 303 302 300 300 301 302 303 304 306 306 306
311 307 307 308 308 305 304 306 301 301 304 304 305 305 306 306 306 305 304 303 303 304 298 302 306 304 303 305 306 304 302 300 299 304 302 300 303 303 301 305 305 305 305 305 305
312 307 309 307 308 303 309 298 304 304 307 305 305 305 306 305 305 306 302 302 302 301 305 302 302 302 302 303 303 305 305 302 298 293 302 301 302 301 302 301 303 305 305 304 304
313 308 308 306 308 303 305 304 301 309 305 305 307 306 306 305 306 305 305 305 304 302 301 301 303 301 301 303 303 304 302 302 299 300 303 303 303 305 302 300 301 303 305 304 303
312 310 307 306 307 306 304 301 303 311 306 305 306 306 307 305 306 307 307 304 302 300 301 297 302 302 299 301 302 301 301 301 302 301 302 301 305 301 302 301 300 302 305 304 303
310 304 306 307 303 301 298 301 306 307 306 306 309 310 306 306 307 308 307 305 302 301 300 299 301 300 299 299 300 302 305 300 301 300 298 301 304 303 300 302 302 304 305 304 303
309 304 304 304 306 300 296 305 307 304 304 305 310 310 309 308 310 307 305 302 301 301 300 300 299 301 305 302 299 301 301 302 300 299 298 304 308 303 300 300 302 303 304 304 303
308 302 301 302 302 300 299 303 305 306 305 305 307 307 310 308 306 305 303 302 302 303 302 302 297 306 314 311 302 299 300 301 299 295 300 302 305 306 302 299 301 302 304 304 302
307 302 302 301 300 300 302 304 305 304 304 306 306 307 311 307 304 305 303 302 302 302 301 300 302 295 295 302 302 302 300 300 299 300 303 309 303 307 304 301 306 306 305 305 304
306 303 301 300 304 304 304 303 306 305 304 305 306 306 308 311 312 306 303 301 303 301 300 299 300 296 301 295 298 299 300 300 301 297 299 301 302 304 305 305 304 306 304 304 303
308 307 308 303 303 304 306 304 305 306 305 306 306 307 309 311 311 307 306 305 304 300 300 301 300 302 308 294 296 306 302 301 300 299 301 302 308 304 303 303 305 307 305 303 304
Wind_Speed
1 4 3 2 0 1 1 1 2 2 2 6 8 9 9 9 8 4 6 5 5 7 8 9 10 7 6 3 3 0 4 2 4 5 3 1 1 1 2 4 6 5 6 7 7
0 2 3 3 2 1 1 0 1 3 1 4 7 4 2 3 5 9 6 6 5 6 5 7 7 5 4 2 3 5 4 5 1 2 2 2 0 2 2 3 7 8 9 8 9
1 1 2 2 2 2 2 1 2 2 2 1 4 8 4 3 2 6 6 4 5 5 6 7 6 5 4 4 5 3 3 4 1 3 3 1 1 3 4 5 11 14 14 12 13
3 2 1 2 2 2 4 3 2 2 1 1 3 8 7 1 1 5 5 3 4 5 5 5 4 3 4 3 3 5 5 5 5 2 2 1 6 8 11 14 10 9 12 13 12
5 3 2 1 1 3 5 5 2 1 2 1 5 7 5 3 3 4 4 3 4 4 6 6 5 5 4 4 3 4 3 5 4 4 2 1 5 7 23 18 15 13 13 13 12
7 5 3 3 2 2 3 2 3 4 1 2 5 4 3 2 3 4 6 6 4 4 5 4 4 9 8 4 4 4 5 6 3 2 2 3 3 6 6 7 16 15 17 13 14
8 6 4 4 3 1 1 1 1 3 5 3 4 4 2 4 5 4 6 8 7 6 7 9 9 1 6 5 6 10 3 3 4 3 2 2 2 7 11 9 13 15 16 15 18
9 8 5 5 4 3 3 2 3 3 4 4 4 3 2 7 5 4 4 7 9 9 7 8 9 10 3 11 4 2 3 3 3 2 3 1 7 7 9 12 17 17 16 17 19
10 9 7 6 5 4 3 4 4 4 4 4 4 3 4 6 4 4 4 5 6 6 6 6 5 6 4 3 4 4 2 3 3 3 3 2 7 7 4 10 20 21 18 16 19
12 10 8 7 5 4 3 5 5 4 4 5 5 2 6 5 5 4 3 3 3 2 2 2 4 4 4 3 3 3 1 3 4 1 3 5 16 11 19 10 20 24 19 18 17
15 12 9 8 6 5 6 8 4 2 5 3 2 2 6 7 6 5 4 4 3 2 2 3 5 2 3 1 2 2 1 3 3 1 4 6 10 13 22 13 12 16 15 9 10
16 13 11 9 7 6 10 5 4 2 4 3 2 3 7 5 2 4 5 4 2 2 3 5 2 2 1 0 2 3 1 3 5 2 3 7 16 10 7 7 13 15 12 11 10
18 15 12 10 8 8 11 10 5 6 2 3 3 3 4 3 1 2 4 6 5 4 4 4 1 2 0 3 3 2 2 1 4 7 4 7 7 5 3 3 7 11 10 10 12
19 16 14 10 7 10 11 12 9 7 4 4 4 4 5 4 2 4 5 3 4 5 3 4 2 1 1 2 1 2 2 0 3 5 3 3 4 4 3 5 5 13 13 11 11
20 18 16 14 6 11 7 11 10 4 1 3 4 5 6 4 7 3 4 3 4 4 4 2 0 2 2 1 2 2 0 0 1 1 3 3 2 6 3 3 8 12 11 9 10
21 19 18 16 13 9 9 14 11 5 6 2 5 6 4 2 3 5 2 5 6 4 5 2 1 2 1 0 1 2 1 3 3 2 3 2 3 5 2 4 4 4 8 8 7
23 21 20 18 13 12 15 15 4 4 3 5 5 6 4 4 3 3 3 4 5 4 1 5 2 1 2 1 1 2 3 4 5 4 4 2 2 8 4 4 4 7 6 4 5
24 22 22 20 14 17 20 4 4 4 7 2 4 5 6 6 2 4 5 3 3 5 3 4 5 1 4 1 2 2 3 4 4 2 5 3 5 4 5 4 4 4 3 3 5
26 25 24 22 18 20 16 3 9 8 7 9 4 5 3 3 5 4 7 6 7 7 7 4 3 2 3 2 1 1 1 1 6 1 2 3 7 6 4 6 8 8 6 5 4
33 27 28 23 21 23 3 8 5 5 6 3 8 5 7 8 6 6 8 3 6 5 3 5 3 1 1 1 1 0 2 3 3 1 4 5 5 5 5 7 7 8 10 5 5
35 16 15 23 23 14 6 7 6 7 7 7 6 6 5 8 7 6 9 1 4 5 4 4 3 3 2 4 5 1 1 2 2 3 4 1 6 7 6 6 9 12 10 8 7
28 4 21 31 11 5 4 7 8 7 8 3 4 4 7 7 6 6 9 2 12 13 8 6 5 3 5 2 1 2 2 4 4 4 1 2 7 3 7 6 7 11 11 8 7
24 8 29 38 9 5 3 4 7 5 6 7 7 3 3 7 5 4 4 2 10 6 8 8 1 2 5 3 3 3 4 3 4 3 5 4 6 2 5 8 11 12 13 13 11
18 4 7 18 6 7 6 5 6 9 5 6 5 5 4 3 4 6 4 2 5 4 2 7 3 6 6 4 4 3 4 5 5 3 3 7 11 11 8 7 15 16 17 17 16
11 7 12 8 10 5 7 11 9 7 5 10 1 5 8 4 3 4 3 2 2 3 2 3 5 3 3 2 3 5 5 7 9 7 6 12 10 18 7 8 20 26 22 18 20
13 9 9 4 21 13 8 10 19 6 9 6 5 11 6 8 8 10 9 5 6 4 5 2 3 3 3 2 2 5 8 10 12 2 11 11 22 22 33 24 20 15 14 15 14
11 16 18 12 11 16 17 10 13 11 13 8 11 7 6 4 4 5 5 16 15 11 8 7 6 3 3 1 3 8 9 15 5 6 9 8 19 6 6 8 12 13 13 9 10
Wind_Direction
19 358 3 359 316 128 86 89 83 52 185 169 121 104 93 78 65 90 63 53 95 117 113 122 126 112 97 93 71 336 62 148 178 163 184 121 144 266 278 250 240 246 244 249 262
330 349 10 1 339 212 149 3 325 20 25 189 207 211 99 92 86 59 55 67 103 134 124 145 117 120 84 40 35 71 96 187 349 127 134 156 141 242 284 257 252 239 240 255 278
244 334 355 20 334 299 270 276 325 338 79 111 205 202 192 7 16 27 32 61 110 121 135 141 116 98 77 44 19 63 139 143 68 136 129 65 357 307 272 262 227 232 239 260 285
247 249 305 347 346 315 312 300 286 315 101 49 30 181 186 281 221 15 31 79 128 142 150 150 142 91 70 60 45 92 62 145 171 156 144 90 322 302 249 253 279 259 252 268 282
248 245 266 286 327 312 309 302 272 170 66 148 109 137 149 114 97 53 50 86 118 132 160 137 135 117 120 102 75 86 149 118 158 177 154 238 288 272 279 263 269 265 274 273 283
244 236 251 265 290 314 323 277 211 201 48 91 148 160 161 134 99 68 74 77 124 144 170 166 131 120 104 71 75 118 133 143 201 261 250 217 248 346 288 282 247 254 275 277 283
247 247 237 255 266 285 19 102 219 232 220 140 144 171 184 148 133 101 81 94 106 100 122 119 127 183 122 102 112 131 86 345 240 240 263 256 296 224 275 271 250 263 280 280 280
240 246 242 246 256 242 204 151 181 188 205 193 193 182 154 148 140 134 114 95 96 106 114 110 112 98 59 120 81 89 60 26 256 265 216 72 268 260 260 242 250 268 279 282 284
238 240 242 249 250 245 249 223 184 177 187 178 187 210 140 154 155 151 146 114 109 110 108 119 107 91 90 76 40 9 230 215 290 253 281 205 265 258 240 236 260 269 283 291 287
235 235 235 235 245 252 226 195 169 183 149 182 188 218 168 178 156 157 159 134 115 157 96 105 77 72 38 68 223 199 264 285 255 282 280 271 265 275 279 261 269 264 277 286 300
236 235 229 230 226 223 198 153 171 175 200 219 174 173 150 153 143 148 156 120 88 32 92 33 70 130 184 201 149 142 220 264 262 52 335 243 270 272 275 274 268 258 274 286 308
237 234 234 225 224 212 206 184 223 184 122 131 140 157 159 172 149 117 137 99 67 76 342 25 108 211 236 328 114 78 255 273 281 253 352 302 291 277 240 236 234 251 265 292 298
232 230 229 225 220 213 219 212 211 174 108 185 172 159 166 200 151 118 140 111 91 58 12 120 84 317 353 41 85 44 220 233 254 322 254 319 288 352 25 223 226 245 271 288 299
230 228 224 222 224 213 213 210 200 182 69 203 198 190 176 174 42 101 112 124 66 143 98 85 290 60 27 55 18 283 159 297 313 11 280 35 278 325 340 287 270 260 263 276 286
228 224 222 211 199 196 201 194 186 183 51 158 157 169 168 182 140 54 115 86 119 117 114 200 2 57 95 63 350 283 321 246 1 320 343 338 56 268 338 297 274 273 256 276 283
227 223 219 214 212 196 193 165 153 49 248 199 142 170 146 168 119 127 125 98 113 90 39 103 35 35 105 272 105 321 312 41 56 43 26 279 108 287 214 218 289 280 249 261 274
223 222 219 213 210 194 167 150 55 156 337 213 190 162 180 157 125 151 160 130 142 86 292 350 340 5 32 22 32 79 46 338 353 10 215 11 32 247 248 246 229 237 231 243 296
220 217 216 211 201 187 166 66 126 237 207 154 133 119 178 157 149 157 134 157 212 107 99 139 317 17 2 27 173 72 130 150 232 288 276 0 236 229 217 178 208 218 234 265 291
210 211 216 206 197 187 171 134 202 201 163 150 85 114 207 215 143 160 189 193 189 174 155 127 284 322 47 351 19 244 40 157 102 35 25 255 284 301 216 243 226 224 218 246 284
200 202 214 201 193 185 143 227 212 188 132 164 161 164 172 186 160 180 180 189 174 175 154 192 72 280 324 357 353 308 141 50 8 350 302 291 285 245 249 232 241 248 237 240 271
192 185 206 197 185 182 203 226 216 213 160 153 187 149 183 174 174 179 188 326 164 138 114 137 106 282 30 196 180 48 43 75 120 133 185 284 275 208 214 204 205 230 237 241 268
172 167 171 175 171 202 173 192 183 177 186 190 151 130 165 157 154 176 183 313 168 154 156 190 133 165 204 221 7 299 221 159 124 269 289 153 274 205 222 213 211 223 232 241 250
166 131 167 174 193 214 268 246 201 152 188 172 198 198 177 161 120 132 128 355 167 155 161 187 309 37 347 6 8 229 206 153 116 89 212 148 263 344 270 258 238 236 242 251 245
150 135 142 197 218 171 153 197 195 208 174 173 166 137 113 93 34 145 127 177 170 179 187 149 104 164 194 191 125 164 215 187 143 126 203 228 274 285 271 256 261 252 259 260 248
167 183 174 183 219 171 186 166 177 185 213 184 174 210 162 122 74 128 116 113 35 173 148 148 173 140 257 205 188 213 180 185 193 203 187 268 237 265 258 241 274 291 284 269 257
154 147 175 180 171 179 190 204 196 181 152 214 175 194 196 156 183 183 143 189 184 166 177 154 173 116 310 13 92 267 225 208 218 211 265 280 283 270 275 275 274 294 287 269 259
198 179 175 168 160 178 209 179 196 168 217 201 173 139 193 211 138 143 162 159 152 147 168 152 143 124 243 352 11 300 223 200 192 201 190 205 245 278 258 240 271 298 295 278 227